This demonstration page uses our WeatherBlox Daily Observations layout. Learn more.

38.89511, -77.03637

Hourly Observations for August 1, 2017

Temp ( °F °C ) Dew Point ( °F °C ) Humidity (%) Winds ( mph kmh ) Pressure ( in mb ) Visibility ( mi km ) Precip ( " mm )
12:52 am 00:52 Partly Cloudy 75 23.9 68 20 79 79 S 5 7 30.06 1018 10 16.09344 0 0
1:52 am 01:52 Clear 74 23.3 70 21.1 88 88 S 6 9 30.06 1018 10 16.09344 0 0
2:52 am 02:52 Mostly Clear 73 22.8 69 20.6 87 87 S 5 7 30.03 1017 8 12.874752 0 0
3:52 am 03:52 Mostly Clear 73 22.8 69 20.6 87 87 Calm 30.03 1017 10 16.09344 0 0
4:52 am 04:52 Mostly Cloudy 71 21.7 68 20 90 90 SW 5 7 30.03 1017 10 16.09344 0 0
5:52 am 05:52 Mostly Clear 72 22.2 68 20 87 87 Calm 30.06 1018 10 16.09344 0 0
6:52 am 06:52 Mostly Sunny 73 22.8 69 20.6 87 87 Calm 30.06 1018 10 16.09344 0 0
7:52 am 07:52 Mostly Sunny 76 24.4 67 19.4 74 74 NNE 5 7 30.06 1018 10 16.09344 0 0
8:52 am 08:52 Mostly Sunny 80 26.7 66 18.9 62 62 NNW 8 13 30.09 1019 10 16.09344 0 0
9:52 am 09:52 Partly Cloudy 82 27.8 67 19.4 60 60 N 7 11 30.06 1018 10 16.09344 0 0
10:52 am 10:52 Mostly Sunny 86 30 67 19.4 53 53 N 5 7 30.09 1019 10 16.09344 0 0
11:52 am 11:52 Mostly Sunny 87 30.6 67 19.4 51 51 NNE 6 9 30.06 1018 10 16.09344 0 0
12:52 pm 12:52 Partly Cloudy 86 30 64 17.8 48 48 NE 5 7 30.06 1018 10 16.09344 0 0
1:52 pm 13:52 Partly Cloudy 90 32.2 64 17.8 42 42 ENE 3 6 30.03 1017 10 16.09344 0 0
2:52 pm 14:52 Mostly Sunny 88 31.1 67 19.4 50 50 S 8 13 30.03 1017 10 16.09344 0 0
3:52 pm 15:52 Sunny 88 31.1 67 19.4 50 50 S 8 13 30 1016 10 16.09344 0 0
4:52 pm 16:52 Partly Cloudy 87 30.6 66 18.9 50 50 S 13 20 30 1016 10 16.09344 0 0
5:52 pm 17:52 Mostly Cloudy 82 27.8 66 18.9 58 58 NW 18 30 30 1016 10 16.09344 0 0
5:55 pm 17:55 Mostly Cloudy with Thunderstorms 82 27.8 67 19.4 60 60 NNW 16 26 30.03 1017 10 16.09344 0 0
6:13 pm 18:13 Mostly Cloudy 79 26.1 69 20.6 72 72 NNW 16 26 30.03 1017 10 16.09344 0 0
6:29 pm 18:29 Mostly Cloudy 81 27.2 68 20 65 65 NE 20 31 30.03 1017 10 16.09344 0 0
6:52 pm 18:52 Mostly Cloudy 78 25.6 69 20.6 74 74 NE 21 33 30.03 1017 10 16.09344 0 0
7:52 pm 19:52 Mostly Cloudy 78 25.6 67 19.4 69 69 NE 6 9 30.03 1017 10 16.09344 0 0
8:52 pm 20:52 Mostly Cloudy 79 26.1 65 18.3 62 62 Calm 30.03 1017 10 16.09344 0 0
9:52 pm 21:52 Mostly Cloudy 78 25.6 70 21.1 76 76 Calm 30.03 1017 10 16.09344 0 0
10:52 pm 22:52 Cloudy 78 25.6 69 20.6 74 74 S 3 6 30.03 1017 10 16.09344 0 0
11:52 pm 23:52 Cloudy 78 25.6 68 20 71 71 Calm 30.03 1017 10 16.09344 0 0

Powered by AerisWeather